This is the latest recevied weather packets stored in our database for station/object KF0PEC-15. If no packets are shown the sender has not sent any weather packets the latest 1 day(s).
| Time | Temp. | Humidity | Pressure | Rain* | Wind** | Luminosity | Snow |
|---|---|---|---|---|---|---|---|
| 1778033355 | 1.11° C | 94% | 1020.7 hPa | 0 mm | 0.45 m/s, 51° | 42 W/m² | - |
| 1778032859 | 1.11° C | 95% | 1020.5 hPa | 0 mm | 0 m/s | 77 W/m² | - |
| 1778032352 | 1.11° C | 95% | 1020.4 hPa | 0 mm | 0.45 m/s, 67° | 132 W/m² | - |
| 1778031755 | 2.22° C | 95% | 1019.5 hPa | 0 mm | 1.34 m/s, 68° | 128 W/m² | - |
| 1778030219 | 2.22° C | 95% | 1018.8 hPa | 0 mm | 0 m/s | 969 W/m² | - |
| 1778029684 | 2.22° C | 95% | 1018.7 hPa | 0 mm | 0.45 m/s, 123° | 673 W/m² | - |
| 1778029194 | 2.22° C | 95% | 1018.9 hPa | 0 mm | 0.45 m/s, 140° | 104 W/m² | - |
| 1778028689 | 2.22° C | 95% | 1018.9 hPa | 0 mm | 0.89 m/s, 151° | 142 W/m² | - |
| 1778028184 | 2.22° C | 95% | 1019.1 hPa | 0 mm | 0.45 m/s, 89° | 947 W/m² | - |
| 1778027592 | 2.22° C | 95% | 1019.2 hPa | 0 mm | 0.45 m/s, 137° | 676 W/m² | - |
| 1778027019 | 2.22° C | 95% | 1019 hPa | 0 mm | 0.45 m/s, 146° | 606 W/m² | - |
| 1778026449 | 2.22° C | 95% | 1018.8 hPa | 0 mm | 0.89 m/s, 120° | 857 W/m² | - |
| 1778025950 | 2.22° C | 95% | 1018.5 hPa | 0 mm | 0.89 m/s, 134° | 110 W/m² | - |
| 1778025380 | 2.22° C | 95% | 1018.3 hPa | 0 mm | 0.89 m/s, 127° | 189 W/m² | - |
| 1778024859 | 2.78° C | 95% | 1018.1 hPa | 0 mm | 0.45 m/s, 139° | 176 W/m² | - |
| 1778024354 | 2.22° C | 94% | 1017.9 hPa | 0 mm | 1.79 m/s, 152° | 275 W/m² | - |
| 1778023831 | 2.22° C | 94% | 1018 hPa | 0 mm | 1.34 m/s, 133° | 323 W/m² | - |
| 1778023252 | 2.78° C | 94% | 1017.9 hPa | 0 mm | 0.89 m/s, 115° | 225 W/m² | - |
| 1778022680 | 2.78° C | 94% | 1017.4 hPa | 0 mm | 1.34 m/s, 159° | 236 W/m² | - |
| 1778022139 | 2.78° C | 94% | 1017.3 hPa | 0 mm | 1.34 m/s, 151° | 289 W/m² | - |
| 1778021584 | 2.78° C | 94% | 1017.1 hPa | 0 mm | 1.34 m/s, 165° | 310 W/m² | - |
| 1778020990 | 2.78° C | 94% | 1016.8 hPa | 0 mm | 1.34 m/s, 145° | 289 W/m² | - |
| 1778020405 | 2.78° C | 94% | 1017 hPa | 0 mm | 0.89 m/s, 154° | 461 W/m² | - |
| 1778019830 | 2.78° C | 94% | 1016.9 hPa | 0 mm | 0.89 m/s, 156° | 499 W/m² | - |
| 1778019305 | 2.78° C | 94% | 1017.2 hPa | 0 mm | 1.34 m/s, 145° | 524 W/m² | - |
* Rain latest hour (hover to see other rain measurements)
** Current wind speed in m/s (hover to see current wind gust speed)